Location: Aix-en-Ergny
(50.5839°N, 1.9996°E)
Time: 06:48:20
(UTC+00:00)

Cosmos 1954 Rocket - Pass Details

Date: 23 October 2019
Orbit: 753 x 781 km, 74.1° (Epoch: 16 November)

Event Time Altitude Azimuth Distance (km) Brightness Sun altitude
Exits shadow 05:02:59 13° 232° (SW) 2,114 5.8 -14.0°
Maximum altitude 05:07:27 44° 302° (WNW) 1,047 4.3 -13.3°
Drops below altitude 10° 05:12:26 10° 15° (NNE) 2,297 6.6 -12.5°
Sets 05:14:55 0° 22° (NNE) 3,223 7.5 -12.1°
